Regional Weather Roundup
Issued by NWS

Home | Current Version | Previous Version | Text Only | Print | Product List | Glossary On
Versions: 1 2 3 4 5 6 7 8 9 10 11 12 13 14 15 16 17 18 19 20 21 22 23 24 25 26 27 28 29 30 31 32 33 34 35 36 37 38 39 40 41 42 43 44 45 46 47 48 49 50
763
ASUS44 KLIX 172207
RWRLA
LOUISIANA WEATHER ROUNDUP
NATIONAL WEATHER SERVICE NEW ORLEANS LA
500 PM CDT FRI APR 17 2015

NOTE: "FAIR" INDICATES FEW OR NO CLOUDS BELOW 12,000 FEET WITH NO
      SIGNIFICANT WEATHER AND/OR OBSTRUCTIONS TO VISIBILITY.
      SKY/WX - SKY CONDITION AND SIGNIFICANT WEATHER.
      TMP - AIR TEMPERATURE.    DP   - DEWPOINT TEMPERATURE.
      RH  - RELATIVE HUMIDITY.  PRES - PRESSURE.
      HX  - HEAT INDEX.         WCI  - WIND CHILL INDEX.

*  THESE STATIONS ARE NOT NWS OR FAA STATIONS AND ARE NOT UNDER
   NWS QUALITY CONTROL.

LAZ040-048-061>063-065-066-069-172300-
SOUTHEAST LOUISIANA

CITY           SKY/WX    TMP DP  RH WIND       PRES   REMARKS
N.O. AUDUBON     N/A     87  75  67 MISG        N/A  HX  96
N.O. INTL ARPT PTSUNNY   81  67  62 W5        29.90F
N.O. LAKEFRONT SUNNY     83  70  64 NW5       29.90F
SLIDELL        SUNNY     82  69  64 SW5       29.89F
BATON ROUGE    MOSUNNY   83  66  56 W3        29.90F
BOOTHVILLE     CLOUDY    78  72  81 SW8       29.94R
BELLE CHASSE   PTSUNNY   80  69  69 SW8       29.90F
BOGALUSA*        N/A     86  65  50 W8        29.91F
GALLIANO*      PTCLDY    82  69  63 CALM      29.92F
NEW ROADS*     FAIR      81  67  61 N5        29.91F
GONZALES*      FAIR      82  68  62 CALM      29.89F
HAMMOND*       MOSUNNY   84  63  48 W5        29.91F
HOUMA*         MOSUNNY   81  72  74 NW6       29.91F
PORT FOURCHON* PTCLDY    81  68  65 VRB3      29.95F

$$

LAZ041-044-053-054-172300-
SOUTHWEST LOUISIANA

CITY           SKY/WX    TMP DP  RH WIND       PRES   REMARKS
LAKE CHARLES   PTSUNNY   81  68  64 E6        29.91S
LAFAYETTE      MOSUNNY   82  69  64 S3        29.90F
PATTERSON      PTSUNNY   79  70  73 CALM      29.92F
SALT POINT       N/A     79  69  71 CALM      29.89F
NEW IBERIA     MOSUNNY   81  70  69 VRB5      29.91F
CHENAULT AIRPK NOT AVBL

$$

LAZ027-028-172300-
CENTRAL LOUISIANA

CITY           SKY/WX    TMP DP  RH WIND       PRES   REMARKS
FORT POLK      PTSUNNY   82  65  55 N8        29.89F
ALEXANDRIA INT MOSUNNY   78  66  66 CALM      29.91S
ALEXANDRIA     MOSUNNY   81  64  56 CALM      29.92F

$$

LAZ001-002-172300-
NORTHWEST LOUISIANA

CITY           SKY/WX    TMP DP  RH WIND       PRES   REMARKS
SHREVEPORT     CLOUDY    80  64  58 N7        29.92F
BARKSDALE AFB  PTSUNNY   82  63  53 VRB2      29.92F
DTN SHREVEPORT PTSUNNY   80  62  54 NE5       29.92F

$$

LAZ014-016-172300-
NORTHEAST LOUISIANA

CITY           SKY/WX    TMP DP  RH WIND       PRES   REMARKS
MONROE         PTSUNNY   81  66  60 NE14      29.93F
TALLULAH       SUNNY     75  63  66 NE10      29.94F

$$




USA.gov is the U.S. government's official web portal to all federal, state and local government web resources and services.